When you browse on this site, cookies collect data to enhance your experience and personalize the content and advertising you see.
Visit our Privacy Policy to learn more. By continuing to use the site, you agree to this use of cookies and data.
  • In Romania
  • List of Countries
  • For 7 days
  • Water Temperature
  • Weather Map
  • Weather Widgets
  • user-avatar
    Login

    Hourly Weather Hadera

    Today, 31 March, Tuesday

    Time Temperature Precipitation Wind Pressure Humidity
    00:00 +13°C° 0 mm 4 mps 714 mmHg 59%
    01:00 +13°C° 0 mm 4 mps 714 mmHg 57%
    02:00 +14°C° 0 mm 4 mps 713 mmHg 53%
    03:00 +13°C° 0 mm 4 mps 713 mmHg 55%
    04:00 +13°C° 0 mm 4 mps 713 mmHg 56%
    05:00 +13°C° 0 mm 4 mps 712 mmHg 58%
    06:00 +14°C° 0 mm 4 mps 712 mmHg 55%
    07:00 +15°C° 0 mm 5 mps 712 mmHg 52%
    08:00 +17°C° 0 mm 6 mps 713 mmHg 49%
    09:00 +18°C° 0 mm 8 mps 712 mmHg 45%
    10:00 +19°C° 0 mm 9 mps 712 mmHg 41%
    11:00 +22°C° 0 mm 11 mps 712 mmHg 37%
    12:00 +21°C° 0 mm 12 mps 711 mmHg 38%
    13:00 +21°C° 0 mm 12 mps 711 mmHg 39%
    14:00 +20°C° 0 mm 13 mps 710 mmHg 41%
    15:00 +19°C° 0 mm 12 mps 710 mmHg 45%
    16:00 +18°C° 0 mm 10 mps 710 mmHg 50%
    17:00 +17°C° 0 mm 9 mps 710 mmHg 55%
    18:00 +15°C° 0.3 mm 7 mps 709 mmHg 67%
    19:00 +14°C° 0.3 mm 6 mps 709 mmHg 79%
    20:00 +12°C° 0.3 mm 4 mps 709 mmHg 91%
    21:00 +12°C° 0.8 mm 4 mps 710 mmHg 91%
    22:00 +12°C° 0.8 mm 4 mps 710 mmHg 91%
    23:00 +12°C° 0.8 mm 3 mps 710 mmHg 91%

    Tomorrow, 1 April, Wednesday

    Time Temperature Precipitation Wind Pressure Humidity
    00:00 +11°C° 0.2 mm 3 mps 710 mmHg 91%
    01:00 +12°C° 0.2 mm 2 mps 710 mmHg 91%
    02:00 +12°C° 0.2 mm 2 mps 710 mmHg 91%
    03:00 +10°C° 0 mm 2 mps 710 mmHg 90%
    04:00 +10°C° 0 mm 2 mps 710 mmHg 90%
    05:00 +10°C° 0 mm 2 mps 711 mmHg 90%
    06:00 +12°C° 0 mm 2 mps 711 mmHg 84%
    07:00 +13°C° 0 mm 3 mps 712 mmHg 78%
    08:00 +14°C° 0 mm 3 mps 712 mmHg 72%
    09:00 +15°C° 0 mm 4 mps 713 mmHg 68%
    10:00 +17°C° 0 mm 4 mps 713 mmHg 65%
    11:00 +16°C° 0 mm 5 mps 714 mmHg 61%
    12:00 +16°C° 0 mm 5 mps 714 mmHg 62%
    13:00 +16°C° 0 mm 5 mps 714 mmHg 62%
    14:00 +16°C° 0 mm 6 mps 714 mmHg 62%
    15:00 +15°C° 0 mm 6 mps 714 mmHg 65%
    16:00 +14°C° 0 mm 6 mps 714 mmHg 69%
    17:00 +13°C° 0 mm 6 mps 713 mmHg 72%
    18:00 +12°C° 0 mm 5 mps 714 mmHg 77%
    19:00 +10°C° 0 mm 5 mps 714 mmHg 83%
    20:00 +10°C° 0 mm 4 mps 714 mmHg 88%
    21:00 +9°C° 0 mm 5 mps 714 mmHg 88%
    22:00 +9°C° 0 mm 5 mps 714 mmHg 88%
    23:00 +9°C° 0 mm 5 mps 714 mmHg 88%

    Day after tomorrow, 2 April, Thursday

    Time Temperature Precipitation Wind Pressure Humidity
    00:00 +9°C° 0 mm 5 mps 714 mmHg 87%
    01:00 +9°C° 0 mm 5 mps 714 mmHg 87%
    02:00 +9°C° 0 mm 5 mps 714 mmHg 87%
    03:00 +9°C° 0 mm 5 mps 714 mmHg 88%
    04:00 +10°C° 0 mm 4 mps 714 mmHg 89%
    05:00 +10°C° 0 mm 4 mps 714 mmHg 90%
    06:00 +11°C° 0 mm 4 mps 715 mmHg 85%
    07:00 +12°C° 0 mm 4 mps 715 mmHg 79%
    08:00 +13°C° 0 mm 4 mps 715 mmHg 74%
    09:00 +13°C° 0 mm 4 mps 716 mmHg 71%
    10:00 +14°C° 0 mm 5 mps 716 mmHg 68%
    11:00 +15°C° 0 mm 5 mps 717 mmHg 64%
    12:00 +15°C° 0 mm 5 mps 716 mmHg 64%
    13:00 +15°C° 0 mm 6 mps 716 mmHg 64%
    14:00 +15°C° 0 mm 6 mps 716 mmHg 64%
    15:00 +14°C° 0 mm 6 mps 716 mmHg 69%
    16:00 +13°C° 0 mm 6 mps 716 mmHg 74%
    17:00 +13°C° 0 mm 6 mps 716 mmHg 79%
    18:00 +12°C° 0 mm 5 mps 716 mmHg 82%
    19:00 +10°C° 0 mm 5 mps 716 mmHg 86%
    20:00 +11°C° 0 mm 4 mps 716 mmHg 90%
    21:00 +11°C° 0 mm 4 mps 716 mmHg 89%
    22:00 +11°C° 0 mm 4 mps 716 mmHg 88%
    23:00 +12°C° 0 mm 5 mps 716 mmHg 87%

    3 April, Friday

    Time Temperature Precipitation Wind Pressure Humidity
    00:00 +10°C° 0.1 mm 5 mps 716 mmHg 88%
    01:00 +10°C° 0.1 mm 5 mps 716 mmHg 89%
    02:00 +10°C° 0.1 mm 5 mps 716 mmHg 90%
    03:00 +10°C° 0.1 mm 5 mps 715 mmHg 91%
    04:00 +10°C° 0.1 mm 5 mps 715 mmHg 91%
    05:00 +10°C° 0.1 mm 5 mps 715 mmHg 92%
    06:00 +12°C° 0 mm 5 mps 716 mmHg 88%
    07:00 +12°C° 0 mm 5 mps 716 mmHg 84%
    08:00 +13°C° 0 mm 4 mps 717 mmHg 79%
    09:00 +13°C° 0 mm 5 mps 717 mmHg 74%
    10:00 +14°C° 0 mm 6 mps 717 mmHg 68%
    11:00 +15°C° 0 mm 6 mps 717 mmHg 62%
    12:00 +15°C° 0 mm 6 mps 717 mmHg 58%
    13:00 +15°C° 0 mm 6 mps 717 mmHg 54%
    14:00 +15°C° 0 mm 6 mps 717 mmHg 50%
    15:00 +14°C° 0 mm 5 mps 717 mmHg 51%
    16:00 +14°C° 0 mm 4 mps 717 mmHg 52%
    17:00 +13°C° 0 mm 4 mps 716 mmHg 54%
    18:00 +13°C° 0 mm 3 mps 717 mmHg 59%
    19:00 +12°C° 0 mm 3 mps 717 mmHg 64%
    20:00 +11°C° 0 mm 3 mps 717 mmHg 69%
    21:00 +12°C° 0 mm 2 mps 717 mmHg 70%
    22:00 +12°C° 0 mm 2 mps 717 mmHg 70%
    23:00 +12°C° 0 mm 1 mps 718 mmHg 71%

    4 April, Saturday

    Time Temperature Precipitation Wind Pressure Humidity
    00:00 +13°C° 0 mm 1 mps 717 mmHg 69%
    01:00 +13°C° 0 mm 1 mps 717 mmHg 67%
    02:00 +12°C° 0 mm 0 mps 717 mmHg 65%
    03:00 +13°C° 0 mm 1 mps 717 mmHg 65%
    04:00 +13°C° 0 mm 1 mps 717 mmHg 64%
    05:00 +13°C° 0 mm 1 mps 717 mmHg 63%
    06:00 +14°C° 0 mm 1 mps 718 mmHg 59%
    07:00 +16°C° 0 mm 2 mps 718 mmHg 54%
    08:00 +17°C° 0 mm 2 mps 719 mmHg 50%
    09:00 +18°C° 0 mm 2 mps 719 mmHg 48%
    10:00 +19°C° 0 mm 3 mps 719 mmHg 45%
    11:00 +21°C° 0 mm 3 mps 719 mmHg 42%
    12:00 +21°C° 0 mm 3 mps 719 mmHg 45%
    13:00 +21°C° 0 mm 3 mps 719 mmHg 47%
    14:00 +21°C° 0 mm 3 mps 719 mmHg 49%
    15:00 +20°C° 0 mm 3 mps 719 mmHg 51%
    16:00 +20°C° 0 mm 3 mps 718 mmHg 52%
    17:00 +20°C° 0 mm 2 mps 718 mmHg 54%
    18:00 +19°C° 0 mm 2 mps 718 mmHg 60%
    19:00 +17°C° 0 mm 2 mps 718 mmHg 66%
    20:00 +16°C° 0 mm 2 mps 718 mmHg 71%
    21:00 +16°C° 0 mm 3 mps 718 mmHg 65%
    22:00 +17°C° 0 mm 3 mps 718 mmHg 59%
    23:00 +17°C° 0 mm 3 mps 718 mmHg 52%

    5 April, Sunday

    Time Temperature Precipitation Wind Pressure Humidity
    00:00 +17°C° 0 mm 3 mps 717 mmHg 49%
    01:00 +17°C° 0 mm 4 mps 717 mmHg 45%
    02:00 +17°C° 0 mm 4 mps 716 mmHg 41%
    03:00 +17°C° 0 mm 4 mps 716 mmHg 42%
    04:00 +17°C° 0 mm 4 mps 716 mmHg 42%
    05:00 +16°C° 0 mm 5 mps 716 mmHg 42%
    06:00 +17°C° 0 mm 5 mps 716 mmHg 41%
    07:00 +19°C° 0 mm 5 mps 716 mmHg 40%
    08:00 +20°C° 0 mm 6 mps 716 mmHg 39%
    09:00 +21°C° 0 mm 7 mps 716 mmHg 37%
    10:00 +23°C° 0 mm 8 mps 716 mmHg 36%
    11:00 +24°C° 0 mm 9 mps 715 mmHg 34%
    12:00 +24°C° 0 mm 9 mps 715 mmHg 34%
    13:00 +24°C° 0 mm 9 mps 714 mmHg 34%
    14:00 +24°C° 0 mm 10 mps 713 mmHg 33%
    15:00 +23°C° 0 mm 10 mps 713 mmHg 35%
    16:00 +23°C° 0 mm 10 mps 712 mmHg 37%
    17:00 +22°C° 0 mm 10 mps 711 mmHg 40%
    18:00 +21°C° 0 mm 10 mps 711 mmHg 42%
    19:00 +19°C° 0 mm 9 mps 711 mmHg 44%
    20:00 +18°C° 0 mm 8 mps 711 mmHg 47%
    21:00 +17°C° 0 mm 6 mps 711 mmHg 52%
    22:00 +16°C° 0 mm 5 mps 711 mmHg 56%
    23:00 +16°C° 0 mm 3 mps 711 mmHg 61%
    Show more